ARIANE 5 DEB, 43384

Orbit data source: Space-Track

ARIANE 5 DEB, 43384 is space debris originally from a launch on Thu, 12 Jun 2008 UTC launched from the French Guiana (FRGUI). Debris objects in space refer to the collection of defunct objects orbiting the Earth. Examples of debris include non-operational satellites, rocket bodies, and fragments generated from explosions, collisions, or faulty payload assembly.

Loading next visibility...
ARIANE 5 DEB details
Identifier
43384, 2008-030G
Orbit
Molniya
Last TLE update4 days ago
Origin
Flag of FRESA (FR)
ManufacturerThales Alenia
MissionSpacecraft
Bus & MotorUnknown
MassUnknown
Launch date (UTC)
2008-06-12 (17 years ago)
Launch vehicleUnknown
Launch site
French Guiana (FRGUI)
Object type
Payload
Rocket body
Debris
Shape & HBRUnknown
Radar Cross SectionMedium (>0.1 m² and <1 m²)

Expand to show TLE details & history

TLE from 4 days ago
0 ARIANE 5 DEB
1 43384U 08030G   24345.56215965  .00000374  00000-0  10904-2 0  9990
2 43384   1.5139 134.4422 7198901 352.3750   0.7442  2.30402394133408
Epoch: 2024-12-10T13:29Z
Definitive object data (Epoch: 2024-12-10T13:29:30.593Z)
Latitude-0.00001°
Longitude-147.59855°
Altitude437.172 km
Speed10.025 km/s
True Right ascension08h 58m 11s
True Declination0° 00' 00"
Sunlit
Object was in full shadow at TLE epoch
Visualization TLE readout
Latitude0.58257°
Longitude7.77753°
Altitude30,487.742 km
Speed2.272 km/s
Apparent Right ascension18h 51m 50s
Apparent Declination-5° 28' 14"
Sunlit
Object is in daylight
Visualization observer readout
Local Sidereal Time02:28:30
Azimuth281.717° WNW
Elevation-21.945°
Doppler factor1
Orbital elements
Apogee altitude35,277.675 km
Perigee altitude406.137 km
Semi-major axis24,220.043 km
Eccentricity0.7198901
Inclination1.5139°
RAAN134.4422°
Arg. of periapsis352.375°
True anomaly6.57127°
Mean anomaly0.7442°
Eccentric anomaly2.65437°
Mean motion0.57581 °/min
BSTAR0.0010904
Orbital period625.2 mins
Loading maneuver chart data...
Loading historical data...
Loading historical data...
Loading historical data...
Loading historical data...
Loading historical data...
Loading historical data...
Loading historical data...

ARIANE 5 DEB Visibility forecast

Observer location: undefined°, undefined

Span
Click to sort rows by Start time (UTC) header in descending order
Start Az.
Max El. time (UTC)
Max El. Az.
Max El.
End time (UTC)
End Az.
143 mins2024-12-14 23:13:41.867Z249.513° W2024-12-15 00:10:41.867Z248.747° W13.487°2024-12-15 01:36:41.867Z253.592° W
|